Location: Baix
(44.7118°N, 4.7648°E)
Time: 15:26:58
(UTC+00:00)

Explorer 11/Cluster Stage 4 - Pass Details

Date: 30 November 2020
Orbit: 467 x 1258 km, 28.8° (Epoch: 14 January)

Event Time Altitude Azimuth Distance (km) Brightness Sun altitude
Rises 19:12:25 0° 206° (SSW) 4,083 10.5 -33.1°
Enters shadow 19:17:20 - 179° (S) 3,100 9.6 -34.0°
Reaches altitude 10° 19:18:51 10° 168° (SSE) 2,939 - -34.3°
Maximum altitude 19:19:46 10° 161° (SSE) 2,887 - -34.5°
Drops below altitude 10° 19:20:41 10° 153° (SSE) 2,873 - -34.6°
Sets 19:26:23 0° 114° (ESE) 3,579 - -35.6°
